TimeEDT,TemperatureF,Dew PointF,Humidity,Sea Level PressureIn,VisibilityMPH,Wind Direction,Wind SpeedMPH,Gust SpeedMPH,PrecipitationIn,Events,Conditions,WindDirDegrees,DateUTC
12:15 AM,71.6,69.8,94,30.19,4.0,SSW,3.5,-,N/A,,Mostly Cloudy,210,2013-09-11 04:15:00
12:35 AM,71.6,69.8,94,30.19,4.0,Calm,Calm,-,N/A,,Partly Cloudy,0,2013-09-11 04:35:00
12:55 AM,71.6,71.6,100,30.19,7.0,Calm,Calm,-,N/A,,Clear,0,2013-09-11 04:55:00
1:15 AM,71.6,69.8,94,30.18,8.0,Calm,Calm,-,N/A,,Clear,0,2013-09-11 05:15:00
1:35 AM,71.6,69.8,94,30.18,8.0,Calm,Calm,-,N/A,,Clear,0,2013-09-11 05:35:00
1:55 AM,71.6,69.8,94,30.18,8.0,SSW,3.5,-,N/A,,Clear,210,2013-09-11 05:55:00
2:15 AM,71.6,69.8,94,30.18,7.0,SSW,3.5,-,N/A,,Clear,200,2013-09-11 06:15:00
2:35 AM,71.6,69.8,94,30.18,7.0,Calm,Calm,-,N/A,,Clear,0,2013-09-11 06:35:00
2:55 AM,71.6,69.8,94,30.17,7.0,Calm,Calm,-,N/A,,Clear,0,2013-09-11 06:55:00
3:15 AM,71.6,69.8,94,30.17,7.0,Calm,Calm,-,N/A,,Clear,0,2013-09-11 07:15:00
3:35 AM,71.6,69.8,94,30.17,6.0,Calm,Calm,-,N/A,,Clear,0,2013-09-11 07:35:00
3:55 AM,69.8,68.0,94,30.17,3.0,Calm,Calm,-,N/A,,Clear,0,2013-09-11 07:55:00
4:15 AM,69.8,68.0,94,30.17,3.0,Calm,Calm,-,N/A,,Clear,0,2013-09-11 08:15:00
4:35 AM,69.8,69.8,100,30.17,3.0,Calm,Calm,-,N/A,,Clear,0,2013-09-11 08:35:00
4:55 AM,69.8,68.0,94,30.17,3.0,Calm,Calm,-,N/A,,Clear,0,2013-09-11 08:55:00
5:15 AM,68.0,68.0,100,30.17,3.0,SSW,3.5,-,N/A,,Clear,200,2013-09-11 09:15:00
5:35 AM,69.8,68.0,94,30.17,5.0,SSW,3.5,-,N/A,,Clear,200,2013-09-11 09:35:00
5:55 AM,69.8,69.8,100,30.18,5.0,Calm,Calm,-,N/A,,Clear,0,2013-09-11 09:55:00
6:15 AM,69.8,68.0,94,30.18,3.0,Calm,Calm,-,N/A,,Clear,0,2013-09-11 10:15:00
6:35 AM,69.8,68.0,94,30.19,4.0,Calm,Calm,-,N/A,,Partly Cloudy,0,2013-09-11 10:35:00
6:55 AM,69.8,69.8,100,30.18,5.0,Calm,Calm,-,N/A,,Scattered Clouds,0,2013-09-11 10:55:00
7:15 AM,69.8,68.0,94,30.19,5.0,Calm,Calm,-,N/A,,Partly Cloudy,0,2013-09-11 11:15:00
7:35 AM,71.6,69.8,94,30.19,5.0,Calm,Calm,-,N/A,,Mostly Cloudy,0,2013-09-11 11:35:00
7:55 AM,71.6,69.8,94,30.19,5.0,SSW,3.5,-,N/A,,Mostly Cloudy,200,2013-09-11 11:55:00
8:15 AM,73.4,71.6,94,30.20,5.0,SW,3.5,-,N/A,,Mostly Cloudy,230,2013-09-11 12:15:00
8:35 AM,73.4,71.6,94,30.20,7.0,SW,5.8,-,N/A,,Mostly Cloudy,220,2013-09-11 12:35:00
8:55 AM,75.2,71.6,89,30.20,7.0,SW,4.6,-,N/A,,Partly Cloudy,230,2013-09-11 12:55:00
9:15 AM,75.2,71.6,89,30.20,8.0,SW,4.6,-,N/A,,Clear,220,2013-09-11 13:15:00
9:35 AM,78.8,71.6,78,30.20,9.0,SW,3.5,-,N/A,,Clear,230,2013-09-11 13:35:00
9:55 AM,78.8,71.6,78,30.20,10.0,SW,6.9,-,N/A,,Mostly Cloudy,220,2013-09-11 13:55:00
10:15 AM,80.6,73.4,79,30.20,9.0,SW,5.8,-,N/A,,Partly Cloudy,230,2013-09-11 14:15:00
10:35 AM,82.4,73.4,74,30.20,9.0,WSW,3.5,-,N/A,,Scattered Clouds,240,2013-09-11 14:35:00
10:55 AM,82.4,71.6,70,30.20,9.0,West,6.9,-,N/A,,Overcast,260,2013-09-11 14:55:00
11:15 AM,80.6,73.4,79,30.20,9.0,SW,4.6,-,N/A,,Overcast,230,2013-09-11 15:15:00
11:35 AM,80.6,71.6,74,30.19,10.0,SW,4.6,-,N/A,,Scattered Clouds,220,2013-09-11 15:35:00
11:55 AM,82.4,71.6,70,30.19,10.0,WSW,3.5,-,N/A,,Partly Cloudy,240,2013-09-11 15:55:00
12:15 PM,82.4,71.6,70,30.18,10.0,West,5.8,-,N/A,,Clear,270,2013-09-11 16:15:00
12:35 PM,84.2,71.6,66,30.18,10.0,Calm,Calm,-,N/A,,Clear,0,2013-09-11 16:35:00
12:55 PM,84.2,73.4,70,30.16,10.0,West,4.6,-,N/A,,Scattered Clouds,260,2013-09-11 16:55:00
1:15 PM,86.0,73.4,66,30.15,10.0,SW,5.8,-,N/A,,Mostly Cloudy,220,2013-09-11 17:15:00
1:35 PM,86.0,71.6,62,30.14,10.0,West,6.9,-,N/A,,Overcast,270,2013-09-11 17:35:00
1:55 PM,86.0,71.6,62,30.14,10.0,West,6.9,-,N/A,,Overcast,280,2013-09-11 17:55:00
2:15 PM,84.2,71.6,66,30.13,10.0,WSW,4.6,-,N/A,Thunderstorm,Overcast,250,2013-09-11 18:15:00
2:35 PM,80.6,69.8,70,30.13,8.0,WSW,11.5,20.7,0.05,Thunderstorm,Thunderstorm,240,2013-09-11 18:35:00
2:55 PM,77.0,71.6,83,30.12,10.0,ESE,4.6,-,0.14,Thunderstorm,Mostly Cloudy,110,2013-09-11 18:55:00
3:15 PM,78.8,71.6,78,30.11,10.0,Calm,Calm,-,N/A,Thunderstorm,Clear,0,2013-09-11 19:15:00
3:35 PM,82.4,73.4,74,30.11,10.0,WNW,4.6,-,N/A,Thunderstorm,Mostly Cloudy,300,2013-09-11 19:35:00
3:55 PM,77.0,68.0,74,30.12,10.0,West,10.4,17.3,N/A,Thunderstorm,Thunderstorm,280,2013-09-11 19:55:00
4:15 PM,71.6,64.4,78,30.12,4.0,NNW,6.9,29.9,0.33,Thunderstorm,Thunderstorm,340,2013-09-11 20:15:00
4:35 PM,69.8,66.2,88,30.10,10.0,South,3.5,-,0.41,Thunderstorm,Thunderstorm,190,2013-09-11 20:35:00
4:55 PM,69.8,68.0,94,30.08,9.0,Calm,Calm,-,0.42,Thunderstorm,Partly Cloudy,0,2013-09-11 20:55:00
5:15 PM,73.4,69.8,88,30.10,9.0,South,6.9,-,N/A,Thunderstorm,Clear,190,2013-09-11 21:15:00
5:35 PM,75.2,69.8,83,30.08,10.0,SSW,8.1,16.1,N/A,,Clear,200,2013-09-11 21:35:00
5:55 PM,77.0,68.0,74,30.08,10.0,SSE,4.6,-,N/A,,Clear,150,2013-09-11 21:55:00
6:15 PM,75.2,68.0,78,30.08,10.0,Calm,Calm,-,N/A,,Clear,0,2013-09-11 22:15:00
6:35 PM,73.4,69.8,88,30.07,10.0,Calm,Calm,-,N/A,,Clear,0,2013-09-11 22:35:00
6:55 PM,71.6,69.8,94,30.09,7.0,Calm,Calm,-,N/A,,Clear,0,2013-09-11 22:55:00
7:15 PM,71.6,69.8,94,30.10,9.0,Calm,Calm,-,N/A,Thunderstorm,Scattered Clouds,0,2013-09-11 23:15:00
7:35 PM,71.6,68.0,88,30.09,10.0,Calm,Calm,-,N/A,,Scattered Clouds,0,2013-09-11 23:35:00
7:55 PM,71.6,68.0,88,30.07,10.0,Calm,Calm,-,N/A,Thunderstorm,Thunderstorm,0,2013-09-11 23:55:00
8:15 PM,69.8,68.0,94,30.07,10.0,Calm,Calm,-,N/A,,Partly Cloudy,0,2013-09-12 00:15:00
8:35 PM,71.6,69.8,94,30.07,9.0,South,5.8,-,N/A,,Scattered Clouds,180,2013-09-12 00:35:00
8:55 PM,71.6,68.0,88,30.08,9.0,Calm,Calm,-,0.01,,Partly Cloudy,0,2013-09-12 00:55:00
9:15 PM,69.8,68.0,94,30.08,8.0,South,4.6,-,N/A,,Partly Cloudy,190,2013-09-12 01:15:00
9:35 PM,69.8,68.0,94,30.10,9.0,Calm,Calm,-,N/A,,Clear,0,2013-09-12 01:35:00
9:55 PM,69.8,68.0,94,30.10,8.0,Calm,Calm,-,N/A,,Clear,0,2013-09-12 01:55:00
10:15 PM,69.8,68.0,94,30.10,7.0,Calm,Calm,-,N/A,,Clear,0,2013-09-12 02:15:00
10:35 PM,69.8,66.2,88,30.10,5.0,Calm,Calm,-,N/A,,Clear,0,2013-09-12 02:35:00
10:55 PM,69.8,68.0,94,30.09,5.0,Calm,Calm,-,N/A,,Clear,0,2013-09-12 02:55:00
11:15 PM,69.8,68.0,94,30.08,5.0,Calm,Calm,-,N/A,,Clear,0,2013-09-12 03:15:00
11:35 PM,69.8,68.0,94,30.08,4.0,Calm,Calm,-,N/A,,Clear,0,2013-09-12 03:35:00
11:55 PM,69.8,69.8,100,30.07,5.0,SSW,3.5,-,N/A,,Clear,210,2013-09-12 03:55:00